TimeCST,TemperatureF,Dew PointF,Humidity,Sea Level PressureIn,VisibilityMPH,Wind Direction,Wind SpeedMPH,Gust SpeedMPH,PrecipitationIn,Events,Conditions,WindDirDegrees,DateUTC
12:13 AM,24.8,19.4,80,30.02,7.0,North,8.1,-,N/A,,Unknown,10,2013-02-07 06:13:00
12:34 AM,24.8,19.4,80,30.02,7.0,NNE,8.1,-,N/A,,Overcast,20,2013-02-07 06:34:00
12:53 AM,24.8,19.4,80,30.03,7.0,North,5.8,-,N/A,,Overcast,360,2013-02-07 06:53:00
1:13 AM,24.8,19.4,80,30.04,7.0,North,9.2,-,N/A,,Overcast,360,2013-02-07 07:13:00
1:33 AM,24.8,19.4,80,30.04,7.0,North,8.1,-,N/A,,Overcast,360,2013-02-07 07:33:00
1:53 AM,24.8,21.2,86,30.04,5.0,North,8.1,-,N/A,,Overcast,360,2013-02-07 07:53:00
2:14 AM,23.0,21.2,93,30.05,4.0,North,8.1,-,N/A,,Overcast,360,2013-02-07 08:14:00
2:33 AM,23.0,21.2,93,30.05,4.0,North,8.1,-,N/A,,Overcast,10,2013-02-07 08:33:00
2:53 AM,23.0,21.2,93,30.06,4.0,North,8.1,-,N/A,,Overcast,360,2013-02-07 08:53:00
3:13 AM,24.8,21.2,86,30.06,4.0,North,8.1,-,N/A,,Overcast,360,2013-02-07 09:13:00
3:33 AM,23.0,21.2,93,30.06,4.0,North,8.1,-,N/A,,Overcast,360,2013-02-07 09:33:00
3:54 AM,23.0,21.2,93,30.06,4.0,North,6.9,-,N/A,,Overcast,10,2013-02-07 09:54:00
4:13 AM,23.0,21.2,93,30.06,4.0,North,8.1,-,N/A,,Overcast,10,2013-02-07 10:13:00
4:33 AM,23.0,21.2,93,30.06,3.0,North,6.9,-,N/A,,Overcast,10,2013-02-07 10:33:00
4:54 AM,23.0,21.2,93,30.06,4.0,North,6.9,-,N/A,,Overcast,10,2013-02-07 10:54:00
5:13 AM,23.0,21.2,93,30.07,4.0,North,6.9,-,N/A,,Overcast,360,2013-02-07 11:13:00
5:33 AM,23.0,19.4,86,30.07,5.0,North,9.2,-,N/A,,Overcast,360,2013-02-07 11:33:00
5:53 AM,23.0,19.4,86,30.09,5.0,North,11.5,-,N/A,,Overcast,350,2013-02-07 11:53:00
6:13 AM,23.0,19.4,86,30.09,7.0,North,11.5,-,N/A,,Overcast,360,2013-02-07 12:13:00
6:33 AM,23.0,19.4,86,30.09,5.0,North,11.5,-,N/A,,Overcast,360,2013-02-07 12:33:00
6:53 AM,23.0,19.4,86,30.10,5.0,North,11.5,-,N/A,,Overcast,360,2013-02-07 12:53:00
7:14 AM,21.2,19.4,93,30.10,5.0,North,12.7,-,N/A,,Overcast,360,2013-02-07 13:14:00
7:33 AM,21.2,19.4,93,30.10,5.0,North,11.5,-,N/A,,Overcast,10,2013-02-07 13:33:00
7:53 AM,21.2,19.4,93,30.12,5.0,North,10.4,-,N/A,,Overcast,360,2013-02-07 13:53:00
8:14 AM,21.2,19.4,93,30.12,4.0,North,9.2,-,N/A,,Overcast,10,2013-02-07 14:14:00
8:33 AM,21.2,19.4,93,30.13,5.0,North,11.5,-,N/A,,Overcast,360,2013-02-07 14:33:00
9:13 AM,23.0,21.2,93,30.15,5.0,North,10.4,-,N/A,,Overcast,10,2013-02-07 15:13:00
9:33 AM,23.0,21.2,93,30.16,5.0,North,9.2,-,N/A,,Overcast,360,2013-02-07 15:33:00
9:53 AM,24.8,21.2,86,30.17,7.0,North,9.2,-,N/A,,Overcast,350,2013-02-07 15:53:00
10:13 AM,24.8,21.2,86,30.17,7.0,North,10.4,-,N/A,,Overcast,360,2013-02-07 16:13:00
10:33 AM,24.8,21.2,86,30.19,7.0,North,11.5,-,N/A,,Overcast,350,2013-02-07 16:33:00
10:53 AM,24.8,21.2,86,30.18,7.0,North,10.4,-,N/A,,Overcast,360,2013-02-07 16:53:00
11:13 AM,24.8,21.2,86,30.18,7.0,North,9.2,-,N/A,,Overcast,360,2013-02-07 17:13:00
11:34 AM,26.6,21.2,80,30.18,7.0,North,8.1,-,N/A,,Overcast,360,2013-02-07 17:34:00
11:53 AM,26.6,21.2,80,30.18,10.0,North,8.1,-,N/A,,Overcast,360,2013-02-07 17:53:00
12:14 PM,26.6,21.2,80,30.18,10.0,NNW,9.2,-,N/A,,Overcast,340,2013-02-07 18:14:00
12:33 PM,26.6,21.2,80,30.18,10.0,NNW,9.2,-,N/A,,Overcast,340,2013-02-07 18:33:00
12:53 PM,26.6,21.2,80,30.18,10.0,North,10.4,-,N/A,,Overcast,350,2013-02-07 18:53:00
1:14 PM,26.6,21.2,80,30.18,10.0,NNW,10.4,-,N/A,,Overcast,340,2013-02-07 19:14:00
1:33 PM,26.6,21.2,80,30.18,7.0,NNW,11.5,-,N/A,,Overcast,330,2013-02-07 19:33:00
1:53 PM,26.6,21.2,80,30.18,10.0,NNW,11.5,-,N/A,,Overcast,340,2013-02-07 19:53:00
2:14 PM,26.6,21.2,80,30.18,10.0,NNW,15.0,-,N/A,,Overcast,340,2013-02-07 20:14:00
2:34 PM,26.6,21.2,80,30.17,10.0,North,13.8,-,N/A,,Overcast,350,2013-02-07 20:34:00
2:54 PM,26.6,21.2,80,30.17,10.0,North,12.7,-,N/A,,Overcast,360,2013-02-07 20:54:00
3:13 PM,26.6,23.0,86,30.18,10.0,North,11.5,-,N/A,,Overcast,360,2013-02-07 21:13:00
3:34 PM,26.6,21.2,80,30.18,10.0,North,12.7,-,N/A,,Overcast,10,2013-02-07 21:34:00
3:54 PM,26.6,21.2,80,30.19,10.0,North,11.5,-,N/A,,Overcast,10,2013-02-07 21:54:00
4:15 PM,26.6,21.2,80,30.20,10.0,North,11.5,-,N/A,,Overcast,360,2013-02-07 22:15:00
4:34 PM,26.6,21.2,80,30.21,10.0,North,9.2,-,N/A,,Overcast,350,2013-02-07 22:34:00
4:54 PM,26.6,21.2,80,30.21,10.0,North,10.4,-,N/A,,Overcast,360,2013-02-07 22:54:00
5:34 PM,24.8,19.4,80,30.22,10.0,NNE,6.9,-,N/A,,Overcast,20,2013-02-07 23:34:00
5:53 PM,24.8,19.4,80,30.22,10.0,NNE,9.2,-,N/A,,Overcast,30,2013-02-07 23:53:00
6:14 PM,24.8,19.4,80,30.23,10.0,NE,8.1,-,N/A,,Overcast,40,2013-02-08 00:14:00
6:34 PM,24.8,19.4,80,30.24,10.0,NNE,9.2,-,N/A,,Overcast,30,2013-02-08 00:34:00
6:53 PM,24.8,19.4,80,30.25,10.0,NNW,5.8,-,N/A,,Overcast,340,2013-02-08 00:53:00
7:13 PM,24.8,19.4,80,30.26,10.0,North,3.5,-,N/A,,Overcast,350,2013-02-08 01:13:00
7:34 PM,23.0,19.4,86,30.26,10.0,NW,4.6,-,N/A,,Overcast,320,2013-02-08 01:34:00
7:53 PM,23.0,19.4,86,30.26,10.0,NNW,4.6,-,N/A,,Overcast,340,2013-02-08 01:53:00
8:13 PM,21.2,19.4,93,30.26,10.0,NW,5.8,-,N/A,,Overcast,320,2013-02-08 02:13:00
8:33 PM,21.2,19.4,93,30.27,10.0,NW,4.6,-,N/A,,Overcast,320,2013-02-08 02:33:00
8:53 PM,21.2,19.4,93,30.27,10.0,NW,3.5,-,N/A,,Overcast,320,2013-02-08 02:53:00
9:13 PM,21.2,19.4,93,30.26,10.0,Calm,Calm,-,N/A,,Overcast,0,2013-02-08 03:13:00
9:34 PM,21.2,17.6,86,30.27,10.0,NNW,8.1,-,N/A,,Overcast,340,2013-02-08 03:34:00
9:53 PM,19.4,15.8,86,30.27,7.0,NNW,5.8,-,N/A,,Overcast,330,2013-02-08 03:53:00
10:14 PM,17.6,15.8,93,30.28,10.0,NNW,5.8,-,N/A,,Overcast,340,2013-02-08 04:14:00
10:33 PM,17.6,15.8,93,30.28,10.0,NW,3.5,-,N/A,,Overcast,320,2013-02-08 04:33:00
10:54 PM,17.6,14.0,86,30.29,10.0,Calm,Calm,-,N/A,,Overcast,0,2013-02-08 04:54:00
11:13 PM,17.6,14.0,86,30.30,10.0,NNE,3.5,-,N/A,,Overcast,20,2013-02-08 05:13:00
11:33 PM,17.6,15.8,93,30.29,10.0,Calm,Calm,-,N/A,,Overcast,0,2013-02-08 05:33:00
11:53 PM,17.6,14.0,86,30.29,10.0,NNW,4.6,-,N/A,,Overcast,340,2013-02-08 05:53:00